Hourly Weather Roundup
Issued by NWS Central Illinois

Home | Current Version | Previous Version | Text Only | Print | Product List | Glossary On
Versions: 1 2 3 4 5 6 7 8 9 10 11 12 13 14 15 16 17 18 19 20 21 22 23 24 25 26 27 28 29 30 31 32 33 34 35 36 37 38 39 40 41 42 43 44 45 46 47 48 49 50
000
NZUS43 KILX 210910
HWRILX

Area Weather Roundup
National Weather Service Lincoln IL
400 AM CDT SAT OCT 21 2017

NOTE:  "FAIR" indicates few or no clouds below 12,000 feet, with
       no sigificant weather and/or obstructions to visibility.


CITY           SKY/WX    TMP DP  RH WIND       PRES   REMARKS
Bloomington    CLOUDY    59  49  69 S10       30.07F
Champaign      CLOUDY    55  48  77 SE5       30.10R
Danville       PTCLDY    55  48  80 SE3       30.09S
Decatur        CLOUDY    60  49  66 S9        30.08S
Effingham      PTCLDY    56  51  82 SE3       30.12R
Flora          CLOUDY    56  50  81 S7        30.11R
Galesburg      CLOUDY    67  58  73 SE8       29.99F
Jacksonville   CLOUDY    63  51  65 S12       30.02S
Lacon          PTCLDY    62  51  66 S9        30.02S
Lawrenceville  MOCLDY    54  49  83 S6        30.12S
Litchfield     MOCLDY    58  50  76 SE7       30.06S
$$


CITY           SKY/WX    TMP DP  RH WIND       PRES   REMARKS
Lincoln        CLOUDY    62  52  68 S8        30.05S
Macomb         MOCLDY    60  52  73 S10       30.00F
Mattoon        CLOUDY    58  50  75 S6        30.09R
Mt Carmel AP   CLOUDY    53  48  84 SE3       30.12R
Olney-Noble AP CLOUDY    56  49  75 S3        30.12R
Paris AP       CLOUDY    55  49  82 SE5       30.12S
Peoria         CLOUDY    61  52  72 S9        30.03F
Pontiac        CLOUDY    60  51  72 S10       30.07S
Rantoul        CLOUDY    56  51  84 S5        30.10S
Robinson       CLOUDY    49  47  93 SE7       30.12F
Springfield    MOCLDY    63  52  67 S9        30.04F
Taylorville    CLOUDY    59  49  71 SE8       30.07S
$$

...REGIONAL REPORTS...


CITY           SKY/WX    TMP DP  RH WIND       PRES   REMARKS
Chicago O`Hare CLOUDY    63  48  58 S12       30.05S
Kankakee       CLOUDY    59  49  69 S7        30.09R
Moline         MOCLDY    65  50  58 S15G22    29.95F
Mount Sterling CLOUDY    61  51  69 S10       29.98F
Mount Vernon   CLOUDY    56  48  74 CALM      30.10S
Pittsfield     PTCLDY    63  52  67 SE7       30.01F
Quincy         CLOUDY    63  51  65 S10       29.97F
Rockford       CLOUDY    60  50  69 S10       30.02F
$$


CITY           SKY/WX    TMP DP  RH WIND       PRES   REMARKS
Burlington     MOCLDY    63  53  70 S15       29.94F
Cedar Rapids   PTCLDY    62  51  67 S14       29.88F
Des Moines     LGT RAIN  65  56  72 S20G26    29.77F
Kirksville     MOCLDY    62  57  83 S13       29.91F
Ottumwa        MOCLDY    63  54  72 S17G25    29.86F
St Louis       CLOUDY    63  53  70 E7        30.05R
$$


CITY           SKY/WX    TMP DP  RH WIND       PRES   REMARKS
Terre Haute    CLOUDY    54  48  80 CALM      30.12S
Evansville     CLOUDY    52  49  89 E3        30.13S
Indianapolis   CLOUDY    55  50  83 SE7       30.15F
Lafayette      CLOUDY    54  50  86 CALM      30.12S
Madison        MOCLDY    62  49  62 S7        29.97S
Milwaukee      CLOUDY    65  48  54 S9        30.01F
$$






USA.gov is the U.S. government's official web portal to all federal, state and local government web resources and services.